MEV-2

Last updated on Tue Jul 08 2025 00:02:48 GMT+0000 (Coordinated Universal Time)

1 46113U 20056B 25188.56324067 .00000006 00000+0 00000+0 0 9999 2 46113 0.0278 284.8405 0000910 204.6155 358.1030 1.00270562 18730
UTC large
Height (km)
Speed (km/s)
/
Latitude / Longitude
Inclination (degrees)
Orbital Period (minutes)
Azimuth
Elevation
Range (km)
Doppler Factor

Next 0 passes for location: London (51.5072 / 0.1276)

Sorry there are no passes over London.